Location: Leeds
(37.2390°N, 113.3580°W)
Time: 06:51:49
(UTC-06:00)

Daily predictions for brighter satellites

Satellite Brightness Start Highest point End
(mag) Time Altitude Azimuth Time Altitude Azimuth Time Altitude Azimuth
Meteor 2-16 Rocket 4.4 19:08:07 10° S 19:14:12 78° E 19:20:20 10° N
SPOT 3 Rocket 4.1 19:09:49 10° SE 19:14:30 35° ENE 19:19:12 10° N
Cosmos 1484 Rocket 2.9 19:11:47 10° S 19:15:30 76° WSW 19:19:13 10° NNW
Cosmos 1328 3.9 19:11:43 10° N 19:15:42 81° W 19:19:37 10° S
RESURS DK-1 3.1 19:12:19 10° N 19:16:01 31° ENE 19:19:43 10° SE
Cosmos 1727 Rocket 4.1 19:13:37 10° N 19:19:51 55° E 19:26:02 10° SSE
Cosmos 44 Rocket 4.2 19:15:53 10° S 19:19:51 28° ESE 19:23:50 10° NE
SL-8 R/B 4.1 19:15:15 10° WSW 19:20:01 62° NNW 19:24:49 10° NE
GP-B 3.2 19:16:22 10° N 19:20:46 58° E 19:25:07 10° S
Cosmos 2219 Rocket 3.9 19:19:03 10° NNE 19:21:50 14° NE 19:24:37 10° E
Cosmos 1726 3.9 19:20:21 10° ESE 19:22:05 13° E 19:23:47 10° ENE
Meteor 1-28 Rocket 3.5 19:19:43 10° N 19:23:30 74° WNW 19:27:15 10° SSW
Cosmos 1703 3.4 19:21:17 10° N 19:25:06 48° E 19:28:52 10° SSE
Cosmos 2058 3.1 19:22:30 10° N 19:26:35 49° E 19:30:35 10° SSE
SKYMED 2 3.6 19:23:36 10° NNE 19:27:54 60° E 19:32:11 10° S
Cosmos 1452 Rocket 3.8 19:23:41 10° N 19:28:43 45° ENE 19:33:43 10° SE
Cosmos 2098 Rocket 4.4 19:25:33 10° SE 19:29:00 23° E 19:33:08 10° NNE
ISS -0.6 19:28:15 10° W 19:29:57 13° SW 19:31:39 10° SSW
Delta 2 Rocket 3.2 19:26:09 10° WSW 19:30:02 66° S 19:33:10 12° E
Cosmos 1743 Rocket 3.5 19:26:48 10° N 19:31:12 79° E 19:35:37 10° S
Atlas Centaur 2 2.9 19:27:56 10° WSW 19:31:59 35° S 19:36:58 10° ESE
BREEZE M DEB (TANK) 4.2 19:30:06 10° NW 19:33:43 17° N 19:35:51 10° NNE
Cosmos 2221 3.0 19:31:00 10° SSE 19:34:57 37° E 19:38:57 10° NNE
Cosmos 1908 3.5 19:31:32 10° SSE 19:35:16 44° E 19:39:00 10° NNE
Cosmos 1842 Rocket 3.7 19:32:47 10° S 19:37:15 83° W 19:41:44 10° N
SL-16 R/B 3.4 19:32:27 10° NW 19:37:51 47° WSW 19:43:15 10° S
METEOR-M 4.1 19:35:58 10° SSE 19:41:17 76° ENE 19:46:38 10° N
H-2A R/B 4.1 19:42:45 15° ESE 19:44:36 20° ENE 19:47:27 10° NNE
Cosmos 921 Rocket 3.2 19:40:27 10° N 19:44:49 51° ENE 19:49:02 10° SSE
Cosmos 2237 4.4 19:39:45 10° NNW 19:45:19 49° ENE 19:50:50 10° SE
Cosmos 1400 Rocket 3.1 19:41:25 10° NNW 19:45:26 69° W 19:49:22 10° S
SL-24 R/B - RUBIN 2 3.6 19:41:08 10° NNW 19:45:55 63° ENE 19:50:14 10° SE
NOAA 12 4.2 19:41:18 10° SSE 19:46:27 55° ENE 19:51:38 10° N
CZ-4C R/B 2.4 19:43:00 10° S 19:47:47 44° ESE 19:53:07 10° NE
Iridium 4 Rocket 3.9 19:45:06 10° SSE 19:50:20 49° E 19:55:56 10° NNE
Cosmos 1500 Rocket 3.7 19:48:05 10° N 19:52:26 78° W 19:56:44 10° S
CZ-4 R/B 3.5 19:49:40 10° SSW 19:53:28 33° W 19:57:15 10° NNW
Cosmos 2237 Rocket 3.9 19:51:44 10° NNE 19:54:39 14° NE 19:55:03 14° NE
MOS 1 4.4 19:49:07 10° S 19:54:47 79° WSW 20:00:29 10° NNW
Cosmos 1626 3.4 19:51:35 10° NNW 19:55:10 45° W 19:58:44 10° SSW
DELTA 2 R/B (1) 3.6 19:50:27 10° WNW 19:56:03 84° NNE 19:59:56 21° E
Cosmos 2227 Rocket 3.7 19:57:06 10° SE 19:59:25 17° ESE 19:59:25 17° ESE
ALOS 2.2 19:57:58 10° SSE 20:02:36 73° ENE 20:07:16 10° N
Cosmos 1048 Rocket 3.8 19:59:35 10° S 20:04:41 73° ESE 20:09:48 10° NNE
Cosmos 1300 3.6 20:03:59 10° SSE 20:06:38 29° ESE 20:06:38 29° ESE
Abrixas 2.2 20:06:05 10° SW 20:07:52 51° SSW 20:07:52 51° SSW
Cosmos 1420 Rocket 3.9 20:07:45 10° NNW 20:13:06 85° ENE 20:18:22 10° SSE
Hubble Space Telescope 3.2 20:13:35 10° SSE 20:13:53 10° SSE 20:14:05 10° SSE
APEX 3.2 20:10:42 10° SSW 20:14:00 58° WNW 20:15:59 18° N
COSMO-SKYMED 1 4.2 20:11:54 10° N 20:15:53 36° WNW 20:19:52 10° SW
Cosmos 2360 Rocket 2.9 20:12:18 10° NNW 20:17:49 56° WSW 20:23:20 10° S
Cosmos 158 Rocket 4.2 20:13:15 10° SSW 20:18:14 68° WNW 20:23:24 10° NNE
Thor Agena Rocket 3.4 20:14:18 10° NNE 20:19:24 78° ESE 20:24:26 10° S
Cosmos 1535 Rocket 4.3 20:13:21 10° S 20:19:25 69° E 20:25:29 10° NNE
Sich 1 3.4 20:17:28 10° N 20:21:38 42° E 20:21:38 42° E
COSMOS 2428 2.6 20:16:06 10° NNW 20:21:47 67° ENE 20:26:11 17° SSE
Cosmos 2333 Rocket 2.7 20:19:40 10° N 20:24:57 36° ENE 20:25:41 35° ENE
Cosmos 2219 3.2 20:21:15 10° SSW 20:27:00 88° WNW 20:32:47 10° NNE
BREEZE-M R/B 3.4 20:27:03 10° SSW 20:28:31 30° SSW 20:28:31 30° SSW
Cosmos 1315 Rocket 4.3 20:26:24 10° NNW 20:30:13 40° W 20:34:04 10° SSW
Cosmos 1805 Rocket 3.4 20:26:41 10° N 20:31:05 86° E 20:35:30 10° S
Cosmos 44 4.0 20:32:44 10° SW 20:36:55 45° WNW 20:40:05 16° NNE
Cosmos 2297 Rocket 3.9 20:33:22 10° SSE 20:34:46 17° SSE 20:34:46 17° SSE
FENGYUN 3A 4.4 20:33:25 10° S 20:38:40 54° W 20:43:58 10° NNW
Cosmos 1666 Rocket 3.6 20:35:41 10° N 20:39:27 59° NE 20:39:27 59° NE
FengYun 1-2 T 4.1 20:34:52 10° SSE 20:40:23 89° ENE 20:45:54 10° NNW
Cosmos 1633 Rocket 3.9 20:42:58 10° N 20:45:44 37° NNE 20:45:44 37° NNE
OAO 1 Rocket 4.3 20:45:01 10° W 20:50:18 71° S 20:50:44 67° SE
SJ-6B 4.0 20:51:56 33° NNW 20:51:56 33° NNW 20:54:07 10° NNW
ASTRO E2 4.3 20:48:26 10° WSW 20:51:25 26° SSW 20:51:25 26° SSW
Cosmos 1934 Rocket 4.2 20:47:30 10° SSW 20:53:50 75° W 21:00:15 10° N
Cosmos 1726 4.0 20:53:43 10° SW 20:57:02 31° WNW 21:00:21 10° NNW
USA 267 3.1 21:00:06 48° NE 21:02:09 84° SE 21:08:41 10° SW
MOS 1-B Rocket 3.7 21:06:31 79° ENE 21:06:31 79° ENE 21:12:26 10° N
Cosmos 2219 Rocket 2.1 21:00:52 10° NNW 21:06:30 84° WSW 21:06:50 79° S
Aureole 2 Rocket 4.3 21:02:55 10° NNW 21:05:11 32° NW 21:05:11 32° NW
Atlas Centaur 2 3.7 21:16:24 10° WSW 21:20:10 24° SSW 21:20:10 24° SSW
Cosmos 2123 Rocket 4.5 21:16:06 10° NNW 21:22:12 58° W 21:27:56 12° SSW
Gbstr 26 Del rocket 4.0 21:18:53 10° NW 21:23:27 65° NW 21:23:27 65° NW
Cosmos 1605 Rocket 4.3 21:18:34 10° SSW 21:24:35 62° W 21:30:38 10° N
Resurs 01 Rocket 4.4 21:38:56 12° NNW 21:38:56 12° NNW 21:39:18 10° NNW
USA 234 4.5 21:36:58 29° N 21:36:58 29° N 21:41:13 10° NNW
CZ-4C R/B 4.0 21:32:03 10° W 21:36:28 26° NW 21:38:59 20° N
Cosmos 2237 Rocket 3.4 21:33:43 10° NNW 21:36:54 35° NNW 21:36:54 35° NNW
Cosmos 2227 Rocket 3.8 21:38:44 10° SW 21:41:22 28° SW 21:41:22 28° SW
SL-16 R/B 4.5 21:44:36 10° N 21:45:34 15° N 21:45:34 15° N
Cosmos 2333 Rocket 4.1 22:04:10 10° NW 22:07:44 26° W 22:07:44 26° W
CZ-3A R/B 4.4 22:11:48 10° NW 22:22:07 50° NNW 22:22:07 50° NNW
